User: anonymous   Login
Location: Unspecified
(0.0000°N, 0.0000°E)
Time: 10:27:05
(UTC+00:00)
Language:

USA 229 - Orbit

View from above orbital plane
View from above orbital plane
View from above satellite
View from above satellite

Ground track
Ground track

The orbit data is extracted from the following two-line orbital elements,

1 37386U 11014A   15148.94440471 0.00000030  00000-0  54431-4 0    03
2 37386  63.4425 124.9163 0005000 112.6525 247.3474 13.40687065    07
Epoch (UTC): 28 May 2015 22:39:56
Eccentricity: 0.0005000
inclination: 63.4425°
perigee height: 1103 km
apogee height: 1110 km
right ascension of ascending node: 124.9163°
argument of perigee: 112.6525°
revolutions per day: 13.40687065
mean anomaly at epoch: 247.3474°
orbit number at epoch: 0

The dashed part of the orbit path shows where the satellite is in the earth's shadow,  

DLR